Location: *
(51.4660°N, 0.3360°W)
Time: 02:41:47
(UTC+00:00)

Cosmos 2084 Rocket - Pass Details

Date: 19 September 2019
Orbit: 571 x 610 km, 62.8° (Epoch: 15 October)

Event Time Altitude Azimuth Distance (km) Brightness Sun altitude
Rises 20:38:54 0° 220° (SW) 2,858 7.0 -22.9°
Reaches altitude 10° 20:41:09 10° 219° (SW) 1,960 6.2 -23.2°
Enters shadow 20:44:12 43° 212° (SSW) 856 4.2 -23.6°
